Location: Unspecified
(50.7741°N, 0.0000°E)
Time: 03:50:07
(UTC+00:00)

CZ-4C R/B - Visible Passes

Search period start: 04 April 2026 00:00
Search period end: 14 April 2026 00:00
Orbit: 756 x 801 km, 98.8° (Epoch: 29 March)

Date Brightness Start Highest point End Pass type
(mag) Time Alt. Az. Time Alt. Az. Time Alt. Az.
4 Apr ? 00:17:20 10° NNW 00:20:38 17° NW 00:21:28 16° WNW visible
4 Apr ? 22:04:03 10° NNE 22:07:49 42° NE 22:07:49 42° NE visible
4 Apr ? 23:43:47 10° N 23:48:10 28° WNW 23:48:18 28° WNW visible
5 Apr ? 21:31:31 10° NNE 21:34:39 26° ENE 21:34:39 26° ENE visible
5 Apr ? 23:10:32 10° N 23:15:08 46° NW 23:15:08 46° NW visible
6 Apr ? 00:52:52 10° NW 00:53:34 10° NW 00:54:17 10° NW visible
6 Apr ? 20:59:30 10° NE 21:01:29 16° ENE 21:01:29 16° ENE visible
6 Apr ? 22:37:30 10° NNE 22:41:58 64° N 22:41:58 64° N visible
7 Apr ? 00:17:58 10° NNW 00:21:16 17° NW 00:22:28 16° WNW visible
7 Apr ? 22:04:41 10° NNE 22:08:48 47° ENE 22:08:48 47° ENE visible
7 Apr ? 23:44:24 10° N 23:48:49 28° WNW 23:49:18 27° WNW visible
8 Apr ? 21:32:08 10° NNE 21:35:39 28° ENE 21:35:39 28° ENE visible
8 Apr ? 23:11:10 10° N 23:16:08 46° WNW 23:16:08 46° WNW visible
9 Apr ? 00:53:32 10° NW 00:54:12 10° NW 00:54:53 10° NW visible
9 Apr ? 21:00:07 10° NE 21:02:28 16° ENE 21:02:28 16° ENE visible
9 Apr ? 22:38:07 10° NNE 22:42:58 73° N 22:42:58 73° N visible
10 Apr ? 00:18:36 10° NNW 00:21:53 17° NW 00:23:27 15° WNW visible
10 Apr ? 22:05:18 10° NNE 22:09:48 52° ENE 22:09:48 52° ENE visible
10 Apr ? 23:45:02 10° N 23:49:26 28° WNW 23:50:17 26° WNW visible
11 Apr ? 21:32:45 10° NNE 21:36:38 30° ENE 21:36:38 30° ENE visible
11 Apr ? 23:11:47 10° N 23:16:49 46° WNW 23:17:07 46° WNW visible
12 Apr ? 00:54:12 10° NW 00:54:50 10° NW 00:55:27 10° NW visible
12 Apr ? 21:00:45 10° NE 21:03:27 17° ENE 21:03:27 17° ENE visible
12 Apr ? 22:38:45 10° NNE 22:43:56 81° NW 22:43:56 81° NW visible
13 Apr ? 00:19:14 10° NNW 00:22:31 17° NW 00:24:26 14° WNW visible
13 Apr ? 22:05:56 10° NNE 22:10:46 55° E 22:10:46 55° E visible
13 Apr ? 23:45:40 10° N 23:50:03 27° WNW 23:51:15 25° W visible
